TimeEST,TemperatureF,Dew PointF,Humidity,Sea Level PressureIn,VisibilityMPH,Wind Direction,Wind SpeedMPH,Gust SpeedMPH,PrecipitationIn,Events,Conditions,WindDirDegrees,DateUTC
12:15 AM,41.0,33.8,76,30.24,10.0,NNE,3.5,-,N/A,,Overcast,20,2012-12-07 05:15:00
12:35 AM,41.0,33.8,76,30.24,10.0,NE,5.8,-,N/A,,Overcast,40,2012-12-07 05:35:00
12:55 AM,41.0,33.8,76,30.23,10.0,NNE,4.6,-,N/A,,Overcast,30,2012-12-07 05:55:00
1:15 AM,41.0,33.8,76,30.22,10.0,NE,3.5,-,N/A,,Overcast,40,2012-12-07 06:15:00
1:35 AM,41.0,33.8,76,30.21,10.0,NE,5.8,-,N/A,,Overcast,40,2012-12-07 06:35:00
1:55 AM,41.0,33.8,76,30.22,10.0,ENE,5.8,-,N/A,,Overcast,70,2012-12-07 06:55:00
2:15 AM,41.0,33.8,76,30.21,10.0,NE,4.6,-,N/A,,Overcast,40,2012-12-07 07:15:00
2:35 AM,41.0,33.8,76,30.21,10.0,NNE,4.6,-,N/A,,Overcast,20,2012-12-07 07:35:00
2:55 AM,41.0,33.8,76,30.21,10.0,NNE,4.6,-,N/A,,Overcast,30,2012-12-07 07:55:00
3:15 AM,41.0,35.6,81,30.20,10.0,NNE,4.6,-,N/A,,Overcast,20,2012-12-07 08:15:00
3:35 AM,41.0,35.6,81,30.20,10.0,NNE,4.6,-,N/A,,Overcast,20,2012-12-07 08:35:00
3:55 AM,41.0,35.6,81,30.20,10.0,NNE,3.5,-,N/A,,Overcast,30,2012-12-07 08:55:00
4:15 AM,41.0,35.6,81,30.20,10.0,North,3.5,-,N/A,,Overcast,10,2012-12-07 09:15:00
4:35 AM,41.0,35.6,81,30.19,10.0,NNE,5.8,-,N/A,,Overcast,20,2012-12-07 09:35:00
4:55 AM,41.0,35.6,81,30.19,10.0,NNE,3.5,-,N/A,,Overcast,20,2012-12-07 09:55:00
5:15 AM,41.0,35.6,81,30.19,10.0,NE,5.8,-,N/A,,Overcast,40,2012-12-07 10:15:00
5:35 AM,41.0,35.6,81,30.19,10.0,NE,5.8,-,N/A,,Overcast,40,2012-12-07 10:35:00
5:55 AM,41.0,35.6,81,30.19,10.0,NE,6.9,-,N/A,,Overcast,50,2012-12-07 10:55:00
6:15 AM,41.0,35.6,81,30.18,10.0,NE,4.6,-,N/A,,Overcast,50,2012-12-07 11:15:00
6:35 AM,41.0,35.6,81,30.19,10.0,NNE,4.6,-,N/A,,Overcast,20,2012-12-07 11:35:00
6:55 AM,41.0,35.6,81,30.19,10.0,NE,4.6,-,N/A,,Overcast,40,2012-12-07 11:55:00
7:15 AM,41.0,37.4,87,30.19,10.0,NNE,3.5,-,N/A,,Overcast,30,2012-12-07 12:15:00
7:35 AM,42.8,37.4,81,30.19,10.0,NNE,4.6,-,N/A,,Overcast,20,2012-12-07 12:35:00
7:55 AM,42.8,37.4,81,30.19,10.0,NNE,3.5,-,N/A,,Overcast,20,2012-12-07 12:55:00
8:15 AM,42.8,37.4,81,30.19,10.0,NNE,4.6,-,N/A,,Overcast,20,2012-12-07 13:15:00
8:35 AM,42.8,37.4,81,30.19,10.0,Calm,Calm,-,N/A,,Overcast,0,2012-12-07 13:35:00
8:55 AM,44.6,37.4,76,30.19,10.0,Calm,Calm,-,N/A,,Overcast,0,2012-12-07 13:55:00
9:15 AM,44.6,39.2,81,30.18,10.0,NE,3.5,-,N/A,,Overcast,50,2012-12-07 14:15:00
9:35 AM,46.4,41.0,81,30.18,10.0,ENE,4.6,-,N/A,,Overcast,60,2012-12-07 14:35:00
9:55 AM,46.4,41.0,81,30.17,10.0,East,6.9,-,N/A,,Overcast,100,2012-12-07 14:55:00
10:15 AM,50.0,42.8,76,30.17,10.0,ESE,5.8,-,N/A,,Overcast,110,2012-12-07 15:15:00
10:35 AM,50.0,42.8,76,30.16,10.0,SE,4.6,-,N/A,,Overcast,140,2012-12-07 15:35:00
10:55 AM,51.8,42.8,71,30.16,10.0,Calm,Calm,-,N/A,,Overcast,0,2012-12-07 15:55:00
11:15 AM,51.8,44.6,76,30.14,10.0,East,4.6,-,N/A,,Overcast,90,2012-12-07 16:15:00
11:35 AM,51.8,44.6,76,30.13,10.0,East,3.5,-,N/A,,Overcast,90,2012-12-07 16:35:00
11:55 AM,53.6,44.6,72,30.12,10.0,East,3.5,-,N/A,,Overcast,100,2012-12-07 16:55:00
12:15 PM,53.6,46.4,77,30.11,10.0,ESE,5.8,-,N/A,,Overcast,120,2012-12-07 17:15:00
12:35 PM,55.4,46.4,72,30.10,10.0,East,4.6,-,N/A,,Overcast,100,2012-12-07 17:35:00
12:55 PM,59.0,48.2,67,30.09,10.0,East,8.1,-,N/A,,Mostly Cloudy,90,2012-12-07 17:55:00
1:15 PM,60.8,48.2,63,30.09,10.0,ESE,4.6,-,N/A,,Mostly Cloudy,110,2012-12-07 18:15:00
1:35 PM,60.8,50.0,68,30.08,10.0,ESE,8.1,-,N/A,,Overcast,120,2012-12-07 18:35:00
1:55 PM,62.6,51.8,68,30.07,10.0,SE,9.2,-,N/A,,Overcast,130,2012-12-07 18:55:00
2:15 PM,62.6,51.8,68,30.06,10.0,SSE,8.1,-,N/A,,Mostly Cloudy,150,2012-12-07 19:15:00
2:35 PM,62.6,51.8,68,30.06,10.0,ESE,5.8,-,N/A,,Mostly Cloudy,120,2012-12-07 19:35:00
2:55 PM,62.6,53.6,72,30.06,10.0,SE,9.2,-,N/A,,Overcast,130,2012-12-07 19:55:00
3:15 PM,62.6,53.6,72,30.06,10.0,ESE,6.9,-,N/A,,Overcast,120,2012-12-07 20:15:00
3:35 PM,62.6,53.6,72,30.05,10.0,ESE,5.8,-,N/A,,Overcast,120,2012-12-07 20:35:00
3:55 PM,62.6,55.4,77,30.06,10.0,ESE,4.6,-,N/A,,Overcast,120,2012-12-07 20:55:00
4:15 PM,60.8,55.4,82,30.05,10.0,ESE,5.8,-,N/A,,Mostly Cloudy,120,2012-12-07 21:15:00
4:35 PM,60.8,55.4,82,30.05,10.0,ESE,5.8,-,N/A,,Mostly Cloudy,110,2012-12-07 21:35:00
4:55 PM,60.8,55.4,82,30.04,10.0,ESE,3.5,-,N/A,,Overcast,110,2012-12-07 21:55:00
5:15 PM,60.8,55.4,82,30.04,10.0,East,3.5,-,N/A,,Overcast,100,2012-12-07 22:15:00
5:35 PM,60.8,55.4,82,30.04,10.0,ESE,5.8,-,N/A,,Mostly Cloudy,110,2012-12-07 22:35:00
5:55 PM,60.8,55.4,82,30.04,10.0,ESE,5.8,-,N/A,,Mostly Cloudy,120,2012-12-07 22:55:00
6:15 PM,60.8,55.4,82,30.04,10.0,ESE,5.8,-,N/A,,Overcast,120,2012-12-07 23:15:00
6:35 PM,59.0,55.4,88,30.04,10.0,ESE,3.5,-,N/A,,Overcast,120,2012-12-07 23:35:00
6:55 PM,59.0,55.4,88,30.04,10.0,ESE,3.5,-,N/A,,Overcast,110,2012-12-07 23:55:00
7:15 PM,59.0,55.4,88,30.04,10.0,Calm,Calm,-,N/A,,Overcast,0,2012-12-08 00:15:00
7:35 PM,59.0,55.4,88,30.04,10.0,East,3.5,-,N/A,,Overcast,100,2012-12-08 00:35:00
7:55 PM,59.0,55.4,88,30.04,10.0,Calm,Calm,-,N/A,,Overcast,0,2012-12-08 00:55:00
8:15 PM,57.2,55.4,94,30.03,10.0,Calm,Calm,-,N/A,,Overcast,0,2012-12-08 01:15:00
8:35 PM,59.0,55.4,88,30.03,10.0,Calm,Calm,-,N/A,,Overcast,0,2012-12-08 01:35:00
8:55 PM,59.0,55.4,88,30.02,10.0,Calm,Calm,-,N/A,,Overcast,0,2012-12-08 01:55:00
9:35 PM,59.0,57.2,94,30.02,4.0,Calm,Calm,-,N/A,,Overcast,0,2012-12-08 02:35:00
9:55 PM,57.2,57.2,100,30.02,4.0,Calm,Calm,-,N/A,,Overcast,0,2012-12-08 02:55:00
10:15 PM,57.2,55.4,94,30.01,2.5,Calm,Calm,-,N/A,,Overcast,0,2012-12-08 03:15:00
10:55 PM,57.2,57.2,100,30.02,1.5,Calm,Calm,-,N/A,,Overcast,0,2012-12-08 03:55:00
11:15 PM,57.2,57.2,100,30.01,1.2,Calm,Calm,-,N/A,,Overcast,0,2012-12-08 04:15:00
11:35 PM,57.2,57.2,100,30.01,1.0,Calm,Calm,-,N/A,,Overcast,0,2012-12-08 04:35:00
11:55 PM,57.2,57.2,100,30.01,0.8,Calm,Calm,-,N/A,,Overcast,0,2012-12-08 04:55:00